EW7199 Weather Reports


Display with metric or nautical units.
time (UTC)temp
F
wind
direction
speed
MPH
gust
MPH
rain 1hr
in
rain 24hr
in
rain mn
in
humidity
%
barometer
mb
20260905125911 89 227 3.0 3.0 0.00 0.00 0.00 43 1016.9
20260905125411 89 232 3.0 3.0 0.00 0.00 0.00 44 1016.9
20260905124913 89 222 3.0 3.0 0.00 0.00 0.00 43 1017.0
20260905124414 89 231 3.0 3.0 0.00 0.00 0.00 45 1017.0
20260905123912 89 230 3.0 3.0 0.00 0.00 0.00 50 1017.1
20260905123413 89 226 2.0 3.0 0.00 0.00 0.00 48 1017.2
20260905122911 90 221 3.0 3.0 0.00 0.00 0.00 46 1017.2
20260905122412 90 250 2.0 3.0 0.00 0.00 0.00 44 1017.2
20260905121912 89 244 3.0 3.0 0.00 0.00 0.00 42 1017.1
20260905121412 89 203 3.0 3.0 0.00 0.00 0.00 42 1017.1
20260905120912 89 220 3.0 3.0 0.00 0.00 0.00 40 1017.2
20260905115912 89 221 2.0 3.0 0.00 0.00 0.00 40 1017.3
20260905115411 89 235 3.0 3.0 0.00 0.00 0.00 37 1017.3
20260905114916 89 231 3.0 5.0 0.00 0.00 0.00 34 1017.3
20260905114416 89 237 3.0 3.0 0.00 0.00 0.00 36 1017.3
20260905113911 89 232 3.0 3.0 0.00 0.00 0.00 30 1017.4
20260905113412 90 236 3.0 3.0 0.00 0.00 0.00 28 1017.4
20260905112912 89 236 2.0 3.0 0.00 0.00 0.00 29 1017.5
20260905112412 89 233 2.0 3.0 0.00 0.00 0.00 32 1017.5
20260905111912 88 249 2.0 3.0 0.00 0.00 0.00 31 1017.5
20260905111411 88 244 3.0 3.0 0.00 0.00 0.00 34 1017.5
20260905110412 88 233 3.0 3.0 0.00 0.00 0.00 32 1017.6
20260905105912 87 247 3.0 3.0 0.00 0.00 0.00 33 1017.6
20260905105412 87 234 2.0 3.0 0.00 0.00 0.00 37 1017.6
20260905104911 87 235 3.0 3.0 0.00 0.00 0.00 36 1017.7
20260905103911 87 234 2.0 3.0 0.00 0.00 0.00 35 1017.7
20260905103412 87 239 3.0 3.0 0.00 0.00 0.00 40 1017.8
20260905102412 87 248 2.0 3.0 0.00 0.00 0.00 41 1017.8
20260905101411 86 249 2.0 3.0 0.00 0.00 0.00 48 1017.9
20260905100913 86 242 2.0 3.0 0.00 0.00 0.00 43 1017.9
20260905100412 86 235 2.0 3.0 0.00 0.00 0.00 47 1017.9
20260905095412 86 236 2.0 3.0 0.00 0.00 0.00 44 1017.9
20260905094912 87 234 2.0 3.0 0.00 0.00 0.00 39 1018.0
20260905094411 86 241 2.0 3.0 0.00 0.00 0.00 39 1018.0
20260905093412 86 235 3.0 3.0 0.00 0.00 0.00 36 1018.1
20260905092912 85 241 2.0 3.0 0.00 0.00 0.00 42 1018.1
20260905092411 85 245 2.0 3.0 0.00 0.00 0.00 44 1018.1
20260905091411 85 249 2.0 3.0 0.00 0.00 0.00 41 1018.2
20260905090913 85 248 2.0 3.0 0.00 0.00 0.00 43 1018.2
20260905085913 83 243 2.0 3.0 0.00 0.00 0.00 43 1018.2
20260905085411 83 235 2.0 3.0 0.00 0.00 0.00 48 1018.2
20260905084911 83 239 2.0 3.0 0.00 0.00 0.00 51 1018.2
20260905084412 82 214 2.0 3.0 0.00 0.00 0.00 54 1018.3
20260905083911 82 259 1.0 3.0 0.00 0.00 0.00 56 1018.3
20260905083411 82 281 2.0 3.0 0.00 0.00 0.00 56 1018.3
20260905082912 82 234 2.0 3.0 0.00 0.00 0.00 57 1018.3
20260905082419 82 218 2.0 3.0 0.00 0.00 0.00 56 1018.3
20260905081911 82 269 2.0 3.0 0.00 0.00 0.00 56 1018.3
20260905081412 82 242 2.0 3.0 0.00 0.00 0.00 55 1018.2
20260905080912 81 249 2.0 3.0 0.00 0.00 0.00 56 1018.2
20260905080413 81 244 2.0 3.0 0.00 0.00 0.00 58 1018.1
20260905075912 81 261 2.0 3.0 0.00 0.00 0.00 56 1018.1
20260905075412 81 253 2.0 3.0 0.00 0.00 0.00 58 1018.0
20260905074912 81 244 2.0 3.0 0.00 0.00 0.00 56 1017.9
20260905074413 82 222 2.0 3.0 0.00 0.00 0.00 54 1017.9
20260905073913 82 222 2.0 3.0 0.00 0.00 0.00 51 1017.8
20260905072912 83 235 2.0 3.0 0.00 0.00 0.00 50 1017.7
20260905072411 82 227 1.0 3.0 0.00 0.00 0.00 50 1017.7
20260905071912 82 217 1.0 3.0 0.00 0.00 0.00 50 1017.6
20260905071411 82 216 1.0 3.0 0.00 0.00 0.00 51 1017.6
20260905070913 82 224 1.0 3.0 0.00 0.00 0.00 52 1017.6
20260905070411 82 224 0.0 0.0 0.00 0.00 0.00 51 1017.6
20260905065411 83 224 0.0 0.0 0.00 0.00 0.00 51 1017.5
20260905064911 83 224 0.0 0.0 0.00 0.00 0.00 50 1017.5
20260905064412 83 224 0.0 0.0 0.00 0.00 0.00 51 1017.5
20260905063411 82 224 0.0 0.0 0.00 0.00 0.00 53 1017.5
20260905062911 81 224 0.0 0.0 0.00 0.00 0.00 54 1017.5
20260905062411 80 224 0.0 0.0 0.00 0.00 0.00 56 1017.6
20260905061912 80 224 0.0 0.0 0.00 0.00 0.00 57 1017.6
20260905061411 79 224 0.0 0.0 0.00 0.00 0.00 57 1017.7
20260905060911 79 224 0.0 0.0 0.00 0.00 0.00 57 1017.7
20260905060412 79 224 0.0 0.0 0.00 0.00 0.00 57 1017.7
20260905055912 79 224 0.0 2.0 0.00 0.00 0.00 56 1017.7
20260905055412 79 224 1.0 2.0 0.00 0.00 0.00 56 1017.7
20260905054911 79 224 1.0 3.0 0.00 0.00 0.00 55 1017.7
20260905054412 79 224 1.0 2.0 0.00 0.00 0.00 52 1017.7
20260905053912 79 224 1.0 2.0 0.00 0.00 0.00 51 1017.7
20260905053413 80 224 1.0 3.0 0.00 0.00 0.00 50 1017.6
20260905052912 80 224 0.0 2.0 0.00 0.00 0.00 53 1017.6
20260905052413 80 224 0.0 0.0 0.00 0.00 0.00 54 1017.6
20260905051912 79 224 0.0 0.0 0.00 0.00 0.00 55 1017.6
20260905051412 79 224 0.0 0.0 0.00 0.00 0.00 55 1017.6
20260905050411 78 224 0.0 1.0 0.00 0.00 0.00 56 1017.6
20260905045911 79 224 1.0 2.0 0.00 0.00 0.00 56 1017.6
20260905045411 78 288 0.0 0.0 0.00 0.00 0.00 54 1017.5
20260905044912 78 288 0.0 1.0 0.00 0.00 0.00 55 1017.5
20260905044412 78 288 0.0 0.0 0.00 0.00 0.00 53 1017.5
20260905043412 78 296 0.0 0.0 0.00 0.00 0.00 54 1017.4
20260905042411 78 314 0.0 1.0 0.00 0.00 0.00 56 1017.3
20260905041911 78 314 1.0 2.0 0.00 0.00 0.00 56 1017.3
20260905041411 78 265 1.0 2.0 0.00 0.00 0.00 56 1017.3
20260905040411 78 241 1.0 3.0 0.00 0.00 0.00 58 1017.2
20260905035911 78 263 2.0 3.0 0.00 0.00 0.00 56 1017.2
20260905035411 78 255 2.0 3.0 0.00 0.00 0.00 55 1017.1
20260905034411 78 289 1.0 2.0 0.00 0.00 0.00 57 1017.1
20260905033911 78 262 1.0 2.0 0.00 0.00 0.00 57 1017.1
20260905033411 78 257 2.0 3.0 0.00 0.00 0.00 57 1017.1
20260905032912 78 261 2.0 2.0 0.00 0.00 0.00 57 1017.1
20260905032409 78 247 2.0 3.0 0.00 0.00 0.00 56 1017.1
20260905031911 78 284 2.0 3.0 0.00 0.00 0.00 56 1017.0
20260905031410 78 262 2.0 3.0 0.00 0.00 0.00 55 1017.1
20260905030911 78 272 2.0 3.0 0.00 0.00 0.00 55 1017.1
20260905030411 78 284 2.0 3.0 0.00 0.00 0.00 54 1017.1
20260905025910 78 298 2.0 3.0 0.00 0.00 0.00 52 1017.1
20260905025412 78 247 1.0 3.0 0.00 0.00 0.00 54 1017.1
20260905024911 78 251 2.0 3.0 0.00 0.00 0.00 55 1017.0
20260905024411 78 266 1.0 2.0 0.00 0.00 0.00 56 1017.0
20260905023910 78 286 2.0 3.0 0.00 0.00 0.00 57 1017.0
20260905023411 78 277 1.0 3.0 0.00 0.00 0.00 58 1017.0
20260905022910 78 291 2.0 3.0 0.00 0.00 0.00 58 1017.0
20260905022411 78 293 2.0 3.0 0.00 0.00 0.00 58 1017.1
20260905021911 78 284 2.0 3.0 0.00 0.00 0.00 57 1017.1
20260905021411 79 249 2.0 3.0 0.00 0.00 0.00 57 1017.0
20260905020911 79 258 2.0 3.0 0.00 0.00 0.00 56 1017.1
20260905020411 79 258 1.0 3.0 0.00 0.00 0.00 55 1017.1
20260905015911 79 248 2.0 3.0 0.00 0.00 0.00 55 1017.2
20260905015411 80 274 2.0 3.0 0.00 0.00 0.00 56 1017.2
20260905014910 80 248 1.0 3.0 0.00 0.00 0.00 58 1017.2
20260905014410 80 261 2.0 3.0 0.00 0.00 0.00 58 1017.2
20260905012910 80 307 0.0 2.0 0.00 0.00 0.00 58 1017.3
20260905012411 81 273 1.0 3.0 0.00 0.00 0.00 58 1017.2
20260905011911 80 288 2.0 3.0 0.00 0.00 0.00 58 1017.3
20260905011410 80 288 2.0 3.0 0.00 0.00 0.00 60 1017.3
20260905010910 80 280 2.0 3.0 0.00 0.00 0.00 61 1017.3
20260905010411 80 279 2.0 3.0 0.00 0.00 0.00 62 1017.3
20260905005911 81 272 2.0 3.0 0.00 0.00 0.00 60 1017.3
20260905004911 81 305 2.0 3.0 0.00 0.00 0.00 56 1017.3
20260905004412 81 244 2.0 3.0 0.00 0.00 0.00 59 1017.3
20260905003912 81 224 2.0 3.0 0.00 0.00 0.00 60 1017.2
20260905003411 81 235 2.0 3.0 0.00 0.00 0.00 56 1017.2
20260905002911 81 222 2.0 3.0 0.00 0.00 0.00 51 1017.2
20260905002411 81 218 2.0 3.0 0.00 0.00 0.00 48 1017.3
20260905001911 81 205 2.0 3.0 0.00 0.00 0.00 47 1017.3
20260905001411 81 228 2.0 3.0 0.00 0.00 0.00 43 1017.3
20260905000911 81 137 2.0 3.0 0.00 0.00 0.00 43 1017.2
20260904235911 81 134 0.0 1.0 0.00 0.00 0.00 44 1017.2
20260904235411 81 134 0.0 0.0 0.00 0.00 0.00 44 1017.2
20260904234911 82 134 1.0 2.0 0.00 0.00 0.00 43 1017.2
20260904234411 82 134 0.0 1.0 0.00 0.00 0.00 43 1017.2
20260904233911 82 133 2.0 3.0 0.00 0.00 0.00 42 1017.2
20260904232911 82 357 1.0 3.0 0.00 0.00 0.00 40 1017.2
20260904232410 82 65 1.0 2.0 0.00 0.00 0.00 41 1017.2
20260904231411 82 35 2.0 3.0 0.00 0.00 0.00 44 1017.2
20260904230911 82 67 1.0 3.0 0.00 0.00 0.00 45 1017.3
20260904230410 82 108 1.0 3.0 0.00 0.00 0.00 46 1017.4
20260904225912 83 126 1.0 3.0 0.00 0.00 0.00 44 1017.4
20260904225410 83 232 0.0 3.0 0.00 0.00 0.00 39 1017.4
20260904224911 83 237 2.0 3.0 0.00 0.00 0.00 38 1017.4
20260904224411 82 305 1.0 3.0 0.00 0.00 0.00 41 1017.4
20260904223911 82 266 0.0 5.0 0.00 0.00 0.00 45 1017.4
20260904223412 81 89 0.0 5.0 0.00 0.00 0.00 51 1017.4
20260904222911 81 112 0.0 0.0 0.00 0.00 0.00 53 1017.4
20260904222411 82 112 0.0 2.0 0.00 0.00 0.00 53 1017.4
20260904221911 82 114 0.0 2.0 0.00 0.00 0.00 49 1017.5
20260904221410 82 117 0.0 0.0 0.00 0.00 0.00 50 1017.5
20260904220910 82 116 1.0 3.0 0.00 0.00 0.00 46 1017.5
20260904220411 83 144 0.0 2.0 0.00 0.00 0.00 42 1017.5
20260904215911 83 131 0.0 2.0 0.00 0.00 0.00 41 1017.4
20260904215410 83 118 1.0 3.0 0.00 0.00 0.00 40 1017.4
20260904214910 83 138 1.0 3.0 0.00 0.00 0.00 42 1017.4
20260904214411 83 258 0.0 2.0 0.00 0.00 0.00 40 1017.4
20260904213911 83 261 1.0 3.0 0.00 0.00 0.00 39 1017.2
20260904213411 84 254 1.0 2.0 0.00 0.00 0.00 41 1017.1
20260904212910 84 254 1.0 2.0 0.00 0.00 0.00 42 1017.2
20260904212411 84 263 1.0 3.0 0.00 0.00 0.00 40 1017.2
20260904211911 85 256 2.0 3.0 0.00 0.00 0.00 34 1017.2
20260904211411 85 261 1.0 3.0 0.00 0.00 0.00 31 1017.1
20260904210410 85 50 1.0 3.0 0.00 0.00 0.00 31 1017.1
20260904205410 85 283 2.0 3.0 0.00 0.00 0.00 33 1017.2
20260904204912 85 281 2.0 3.0 0.00 0.00 0.00 33 1017.2
20260904204413 85 257 2.0 2.0 0.00 0.00 0.00 32 1017.2
20260904203910 85 257 2.0 3.0 0.00 0.00 0.00 32 1017.2
20260904203411 85 270 2.0 3.0 0.00 0.00 0.00 32 1017.2
20260904202910 85 293 1.0 3.0 0.00 0.00 0.00 32 1017.2
20260904202410 85 313 1.0 3.0 0.00 0.00 0.00 32 1017.2
20260904201911 85 226 1.0 3.0 0.00 0.00 0.00 32 1017.2
20260904201411 85 58 1.0 3.0 0.00 0.00 0.00 32 1017.3
20260904200911 85 288 1.0 3.0 0.00 0.00 0.00 33 1017.2
20260904200410 85 340 1.0 3.0 0.00 0.00 0.00 32 1017.2
20260904195911 85 315 2.0 3.0 0.00 0.00 0.00 33 1017.3
20260904194911 85 314 2.0 3.0 0.00 0.00 0.00 34 1017.3
20260904193910 84 293 2.0 3.0 0.00 0.00 0.00 34 1017.2
20260904193411 84 312 2.0 3.0 0.00 0.00 0.00 35 1017.2
20260904192911 84 293 3.0 3.0 0.00 0.00 0.00 36 1017.2
20260904192411 84 306 2.0 3.0 0.00 0.00 0.00 37 1017.2
20260904191910 84 288 1.0 3.0 0.00 0.00 0.00 39 1017.2
20260904191410 84 291 1.0 3.0 0.00 0.00 0.00 39 1017.2
20260904190910 85 299 1.0 3.0 0.00 0.00 0.00 40 1017.3
20260904190411 85 45 2.0 3.0 0.00 0.00 0.00 39 1017.3
20260904185909 85 355 1.0 3.0 0.00 0.00 0.00 39 1017.2
20260904185412 85 349 1.0 3.0 0.00 0.00 0.00 39 1017.1
20260904184910 86 288 1.0 3.0 0.00 0.00 0.00 39 1017.1
20260904184410 86 294 2.0 3.0 0.00 0.00 0.00 38 1017.1
20260904183910 86 317 1.0 3.0 0.00 0.00 0.00 38 1017.1
20260904183411 86 297 1.0 3.0 0.00 0.00 0.00 38 1017.0
20260904182910 86 72 2.0 3.0 0.00 0.00 0.00 38 1017.0
20260904182410 86 312 2.0 3.0 0.00 0.00 0.00 39 1017.0
20260904181911 86 13 1.0 3.0 0.00 0.00 0.00 39 1016.9
20260904181411 86 297 1.0 3.0 0.00 0.00 0.00 40 1016.9
20260904180910 86 358 1.0 3.0 0.00 0.00 0.00 40 1016.8
20260904180411 87 36 2.0 3.0 0.00 0.00 0.00 40 1016.8
20260904175910 87 39 1.0 3.0 0.00 0.00 0.00 39 1016.8
20260904174911 87 23 2.0 3.0 0.00 0.00 0.00 38 1016.6
20260904174411 87 18 2.0 3.0 0.00 0.00 0.00 37 1016.6
20260904173910 87 42 2.0 3.0 0.00 0.00 0.00 38 1016.5
20260904173411 88 29 2.0 3.0 0.00 0.00 0.00 38 1016.5
20260904172911 88 332 2.0 3.0 0.00 0.00 0.00 37 1016.4
20260904172411 88 27 2.0 3.0 0.00 0.00 0.00 36 1016.4
20260904171410 89 338 2.0 3.0 0.00 0.00 0.00 34 1016.4
20260904170910 90 38 1.0 3.0 0.00 0.00 0.00 33 1016.4
20260904170410 90 25 2.0 3.0 0.00 0.00 0.00 32 1016.3
20260904165409 91 22 2.0 3.0 0.00 0.00 0.00 30 1016.2
20260904164410 91 23 1.0 3.0 0.00 0.00 0.00 30 1016.1
20260904163910 91 233 1.0 3.0 0.00 0.00 0.00 30 1016.1
20260904163410 91 47 2.0 3.0 0.00 0.00 0.00 30 1016.1
20260904162911 91 23 2.0 3.0 0.00 0.00 0.00 30 1016.1
20260904162410 92 28 2.0 3.0 0.00 0.00 0.00 29 1016.0
20260904161911 92 314 1.0 3.0 0.00 0.00 0.00 31 1016.0
20260904161410 92 29 2.0 3.0 0.00 0.00 0.00 30 1016.0
20260904160911 92 37 2.0 3.0 0.00 0.00 0.00 30 1015.9
20260904160410 92 60 1.0 3.0 0.00 0.00 0.00 30 1015.9
20260904155910 92 37 2.0 3.0 0.00 0.00 0.00 30 1015.9
20260904155410 92 45 2.0 3.0 0.00 0.00 0.00 29 1015.9
20260904154910 92 46 2.0 3.0 0.00 0.00 0.00 29 1015.8
20260904154410 92 357 2.0 3.0 0.00 0.00 0.00 28 1015.8
20260904153910 93 36 2.0 3.0 0.00 0.00 0.00 28 1015.9
20260904153410 93 8 2.0 3.0 0.00 0.00 0.00 28 1015.9
20260904152909 93 23 1.0 3.0 0.00 0.00 0.00 28 1015.9
20260904151910 93 226 1.0 5.0 0.00 0.00 0.00 28 1015.9
20260904151410 93 30 2.0 3.0 0.00 0.00 0.00 28 1015.9
20260904150910 93 96 1.0 3.0 0.00 0.00 0.00 28 1015.9
20260904150410 93 324 3.0 3.0 0.00 0.00 0.00 27 1015.9
20260904145910 93 278 1.0 3.0 0.00 0.00 0.00 28 1015.8
20260904144910 94 92 1.0 3.0 0.00 0.00 0.00 28 1015.8
20260904143411 94 327 2.0 3.0 0.00 0.00 0.00 29 1015.8
20260904142410 93 54 2.0 3.0 0.00 0.00 0.00 29 1015.7
20260904141910 93 3 2.0 3.0 0.00 0.00 0.00 30 1015.6
20260904141411 93 54 2.0 3.0 0.00 0.00 0.00 30 1015.7
20260904140411 93 21 3.0 5.0 0.00 0.00 0.00 30 1015.6
20260904135410 93 11 2.0 3.0 0.00 0.00 0.00 33 1015.7
20260904134909 93 50 2.0 3.0 0.00 0.00 0.00 33 1015.7
20260904134411 93 45 2.0 3.0 0.00 0.00 0.00 32 1015.8
20260904133912 93 76 1.0 3.0 0.00 0.00 0.00 32 1015.8
20260904133410 94 71 2.0 3.0 0.00 0.00 0.00 32 1015.9
20260904132911 93 255 1.0 3.0 0.00 0.00 0.00 32 1015.9
20260904131910 93 32 2.0 3.0 0.00 0.00 0.00 33 1015.9
20260904131410 93 58 2.0 5.0 0.00 0.00 0.00 32 1016.0
20260904130911 93 356 2.0 5.0 0.00 0.00 0.00 32 1016.0
20260904130411 93 357 1.0 3.0 0.00 0.00 0.00 33 1016.0